{"data":{"norad_id":60380,"intl_designator":"2024-140B","name":"QIANFAN-2","alt_names":[],"object_type":"PAYLOAD","status":"ACTIVE","operator":null,"country":"PRC","launch_date":"2024-08-06","launch_site_code":"TAISC","launch_vehicle":null,"mission":null,"orbit_class":"UNKNOWN","rcs_meters":null,"size_class":null,"mass_kg":null,"dimensions":null,"purposes":[],"wikipedia_slug":null,"has_3d_model":false,"image_url":null,"decayed_at":null,"tle_current":{"epoch":"2026-09-22T21:37:16.972896Z","epoch_age_seconds":76345,"freshness":"FRESH","line1":"1 60380U 24140B   26265.90089089  .00000046  00000+0  52672-4 0  9997","line2":"2 60380  88.9651 269.5758 0014904  87.2338 273.0519 13.51020479105776","mean_motion":13.51020479,"eccentricity":0.0014904,"inclination_deg":88.9651,"raan_deg":269.5758,"arg_perigee_deg":87.2338,"mean_anomaly_deg":273.0519,"bstar":5.2672e-5,"rev_number":10577,"period_min":106.58609713051,"perigee_km":1057.4078554076,"apogee_km":1079.6048098535,"semimajor_km":7446.6433326305,"source":"CELESTRAK","updated_at":"2026-09-23T09:00:20.564750Z"}}}